Вернуться в каталог

METEOR 2-8 DEB

LostPO
NORAD 36333·DEBRIS·🇷🇺 Russia

Запущен Mar 25, 1982 с Plesetsk Cosmodrome

Loading…

Ближайшие Пролёты (ближайшие 24 часа)

TLE

УстаревшееSource: Space-Track

Эпоха: Jan 16, 2023, 02:11 UTC

1 36333U 82025T   23016.09097286  .00016993  00000-0  76191-2 0  9992
2 36333  82.5242 145.0409 0014538 144.6006 215.6144 14.22318310988562

Отслеживайте METEOR 2-8 DEB в реальном времени с AllMySat

Download on the App Store